User: anonymous   Login
Location: Unspecified
(0.0000°N, 0.0000°E)
Time: 00:14:38
(UTC+00:00)
Language:

Isis 2 - Orbit

View from above orbital plane
View from above orbital plane
View from above satellite
View from above satellite

Ground track
Ground track

The orbit data is extracted from the following two-line orbital elements,

1  5104U 71024A   17326.51523336 +.00000016 +00000-0 +27853-4 0  9997
2  5104 088.1624 095.7189 0042832 325.5141 078.5325 12.67836026158296
Epoch (UTC): 22 November 2017 12:21:56
Eccentricity: 0.0042832
inclination: 88.1624°
perigee height: 1357 km
apogee height: 1424 km
right ascension of ascending node: 95.7189°
argument of perigee: 325.5141°
revolutions per day: 12.67836026
mean anomaly at epoch: 78.5325°
orbit number at epoch: 15829

The dashed part of the orbit path shows where the satellite is in the earth's shadow,  

DLR